Iron Mountain, MI

11:33 AM CST on February 10, 2016 (GMT -0600)
Ford

Weather History for KIMT - February, 2014

Change the Weather History Date:

Monday, February 3, 2014

  Actual Average Record
Temperature  
Mean Temperature 4 °F -  
Max Temperature 24 °F 24 °F 56 °F (1991)
Min Temperature -17 °F 2 °F -25 °F (1985)
Degree Days  
Heating Degree Days 62    
Moisture  
Dew Point -2 °F    
Average Humidity 69    
Maximum Humidity 84    
Minimum Humidity 48    
Precipitation  
Precipitation 0.00 in - - ()
Sea Level Pressure  
Sea Level Pressure 30.27 in    
Wind  
Wind Speed 3 mph (SW)    
Max Wind Speed 9 mph    
Max Gust Speed -    
Visibility 10 miles    
Events      
Averages and records for this station are not official NWS values.
T = Trace of Precipitation, MM = Missing Value Source: NWS Daily Summary

Daily Weather History Graph

Daily Weather History Graph

Search for Another Location

Airport or City:

Trip Planner

Search our weather history database for the weather conditions in past years. The results will help you decide how hot, cold, wet, or windy it might be!

Date:

Astronomy

Feb. 03, 2014 Rise Set
Actual Time 7:11 AM CST 5:01 PM CST
Civil Twilight 6:40 AM CST 5:32 PM CST
Nautical Twilight 6:04 AM CST 6:08 PM CST
Astronomical Twilight 5:29 AM CST 6:43 PM CST
Moon 8:57 AM CST (2/3) 10:09 PM CST (2/3)
Length of Visible Light 10h 52m
Length of Day
9h 49m
Waxing Crescent, 20% of the Moon is Illuminated
Feb 3
Waxing Crescent
Feb 6
First Quarter
Feb 14
Full
Feb 22
Last Quarter
Mar 1
New

Hourly Weather History & Observations

Time (CST) Temp. Windchill Dew Point Humidity Pressure Visibility Wind Dir Wind Speed Gust Speed Precip Events Conditions
12:54 AM -6.0 °F - -11.0 °F 79% 30.27 in 10.0 mi Calm Calm - N/A   Clear
1:54 AM -11.9 °F - -17.0 °F 78% 30.28 in 10.0 mi Calm Calm - N/A   Clear
2:54 AM -9.0 °F - -15.0 °F 75% 30.28 in 10.0 mi Calm Calm - N/A   Clear
3:54 AM -7.1 °F -15.9 °F -11.9 °F 79% 30.29 in 10.0 mi North 3.5 mph - N/A   Clear
4:54 AM -5.1 °F - -11.0 °F 76% 30.29 in 10.0 mi Calm Calm - N/A   Clear
5:54 AM -9.0 °F -18.2 °F -13.0 °F 83% 30.29 in 10.0 mi NW 3.5 mph - N/A   Clear
6:54 AM -13.0 °F -22.7 °F -18.0 °F 78% 30.30 in 10.0 mi North 3.5 mph - N/A   Clear
7:54 AM -17.0 °F - -22.0 °F 78% 30.31 in 10.0 mi Calm Calm - N/A   Clear
8:54 AM -4.0 °F -12.4 °F -8.0 °F 83% 30.31 in 10.0 mi North 3.5 mph - N/A   Clear
9:54 AM 5.0 °F - 1.0 °F 84% 30.30 in 10.0 mi Calm Calm - N/A   Clear
10:54 AM 10.9 °F - 1.0 °F 64% 30.28 in 10.0 mi Calm Calm - N/A   Clear
11:54 AM 19.9 °F 12.1 °F 5.0 °F 52% 30.25 in 10.0 mi Variable 5.8 mph - N/A   Clear
12:54 PM 21.9 °F 11.7 °F 6.1 °F 51% 30.22 in 10.0 mi South 9.2 mph - N/A   Clear
1:54 PM 24.1 °F 15.2 °F 7.0 °F 48% 30.20 in 10.0 mi SSW 8.1 mph - N/A   Clear
2:54 PM 24.1 °F 14.4 °F 8.1 °F 51% 30.20 in 10.0 mi South 9.2 mph - N/A   Mostly Cloudy
3:54 PM 23.0 °F 13.9 °F 8.1 °F 53% 30.20 in 10.0 mi South 8.1 mph - N/A   Partly Cloudy
4:54 PM 19.9 °F 10.1 °F 8.1 °F 60% 30.21 in 10.0 mi SSE 8.1 mph - N/A   Clear
5:54 PM 17.1 °F 7.6 °F 6.1 °F 62% 30.24 in 10.0 mi South 6.9 mph - N/A   Clear
6:54 PM 14.0 °F 5.1 °F 5.0 °F 67% 30.25 in 10.0 mi SSE 5.8 mph - N/A   Scattered Clouds
7:54 PM 17.1 °F 8.7 °F 6.1 °F 62% 30.28 in 10.0 mi West 5.8 mph - N/A   Scattered Clouds
8:54 PM 16.0 °F 6.3 °F 5.0 °F 62% 30.27 in 10.0 mi West 6.9 mph - N/A   Overcast
9:54 PM 14.0 °F 3.9 °F 5.0 °F 67% 30.28 in 10.0 mi WNW 6.9 mph - N/A   Overcast
10:54 PM 8.1 °F - 1.9 °F 76% 30.30 in 10.0 mi Calm Calm - N/A   Partly Cloudy
11:54 PM 3.9 °F - -0.0 °F 84% 30.30 in 9.0 mi Calm Calm - N/A   Clear